Home   Weather   Juneau   Past weeks

Flag for USA Past Weather in Juneau, Alaska, USA — Yesterday and Last 2 Weeks

Now
49 °F

Mostly cloudy.


Feels Like: 47 °F
Forecast: 43 / 49 °F
Wind: 5 mph from East

Location: Juneau International Airport

Current Time: Sep 27, 2016 at 12:44:22 PM

Latest Report: Sep 27, 2016 at 11:53 AM


Visibility: 10 mi

Pressure: 30.20 "Hg

Humidity: 86%

Dew Point: 45 °F

Location of JuneauLocation

Past Weather in Juneau — Graph

°F

Juneau Temperature Yesterday

Maximum temperature yesterday: 52 °F (at 12:53 PM)
Minimum temperature yesterday: 43 °F (at 6:53 AM)
Average temperature yesterday: 48 °F

High & Low Weather Summary for the Past Weeks

 TemperatureHumidityPressure
High60 °F (Sep 19, 5:53 PM)100% (Sep 16, 5:53 AM)30.30 "Hg (Sep 16, 5:53 AM)
Low39 °F (Sep 20, 4:53 AM)57% (Sep 22, 7:53 AM)29.46 "Hg (Sep 17, 4:53 AM)
Average51 °F88%29.88 "Hg
* Reported Sep 12 10:53 AM — Sep 27 10:53 AM, Juneau, Weather by CustomWeather, © 2016

Note: Actual official high and low records may vary slightly from our data, if they occured in-between our weather recording intervals... More about our weather records

Advertising

Juneau Weather History for the Previous 24 Hours

Scroll right to see more
 ConditionsComfort  
Time TempWeatherWind HumidityBarometerVisibility
10:53 AM
Tue, Sep 27
48 °FMostly cloudy.8 mph89%30.19 "Hg10 mi
9:53 AM47 °FLight rain. Mostly cloudy.6 mph90%30.17 "Hg7 mi
8:53 AM47 °FMostly cloudy.6 mph90%30.15 "Hg10 mi
7:53 AM46 °FMostly cloudy.6 mph93%30.14 "Hg10 mi
6:53 AM46 °FLight rain. Mostly cloudy.8 mph93%30.12 "Hg10 mi
5:53 AM47 °FMostly cloudy.8 mph90%30.10 "Hg10 mi
4:53 AM46 °FMostly cloudy.5 mph93%30.09 "Hg10 mi
3:53 AM47 °FLight rain. Mostly cloudy.6 mph90%30.07 "Hg10 mi
2:53 AM46 °FMostly cloudy.6 mph93%30.05 "Hg10 mi
1:53 AM46 °FLight rain. Mostly cloudy.No wind93%30.03 "Hg10 mi
12:53 AM46 °FLight rain. Mostly cloudy.No wind93%30.00 "Hg8 mi
11:53 PM
Mon, Sep 26
46 °FRain. Mostly cloudy.No wind93%29.99 "Hg7 mi
10:53 PM46 °FLight rain. Mostly cloudy.No wind93%29.97 "Hg10 mi
9:53 PM47 °FMostly cloudy.5 mph86%29.96 "Hg10 mi
8:53 PM47 °FMostly cloudy.6 mph90%29.94 "Hg10 mi
7:53 PM47 °FMostly cloudy.3 mph90%29.93 "Hg10 mi
6:53 PM47 °FMostly cloudy.3 mph90%29.91 "Hg10 mi
5:53 PM48 °FMostly cloudy.3 mph89%29.90 "Hg10 mi
4:53 PM48 °FLight rain. Mostly cloudy.No wind93%29.89 "Hg10 mi
3:53 PM49 °FLight rain. Mostly cloudy.3 mph77%29.88 "Hg10 mi
2:53 PM50 °FLight rain. Fog.9 mph86%29.87 "Hg10 mi
1:53 PM52 °FLight rain. Cloudy.6 mph77%29.85 "Hg10 mi
12:53 PM52 °FBroken clouds.6 mph77%29.84 "Hg10 mi
Weather by CustomWeather, © 2016

See weather overviewHow to use our weather pages